Simultaneous Nadir Overpasses (SNOs) Predictions

Prediction of SNOs between AURA and NPP Satellite Orbit:

Table of predicted SNOs for the next 14.0 days since TLE Epoch: 10/27/2017
Index Date (AURA) Time (AURA) Lat,Lon (AURA) SZA (AURA ) Date (NPP) Time (NPP) Lat,Lon (NPP) SZA (NPP ) Distance(km) Time Diff (sec)
1 10/29/2017 02:51:51 -79.56,-145.73 75.17 10/29/2017 02:51:21 -79.57,-145.65 75.16 1.70 30
2 10/29/2017 03:41:11 79.77, 23.47 104.55 10/29/2017 03:41:59 79.77, 23.50 104.51 0.57 48
3 10/31/2017 19:08:20 -79.63, -29.38 74.41 10/31/2017 19:08:14 -79.63, -29.34 74.41 0.88 6
4 10/31/2017 19:57:40 79.84, 139.82 105.32 10/31/2017 19:58:52 79.83, 139.81 105.27 0.39 72
5 11/03/2017 10:35:28 79.44, -82.45 106.67 11/03/2017 10:34:29 79.45, -82.41 106.71 0.75 59
6 11/03/2017 11:24:49 -79.69, 86.92 73.66 11/03/2017 11:25:07 -79.69, 86.96 73.68 0.86 18
7 11/06/2017 02:51:56 79.53, 34.04 107.35 11/06/2017 02:51:21 79.54, 34.10 107.37 1.44 35
8 11/06/2017 03:41:17 -79.77,-156.55 72.98 11/06/2017 03:41:59 -79.78,-156.47 73.02 1.72 42
9 11/08/2017 19:08:22 79.65, 150.75 107.97 11/08/2017 19:08:11 79.66, 150.89 107.95 2.92 11




NCC Satellite Simultaneous Nadir Overpasses (SNOs) Prediction Service
